TimeEST,TemperatureF,Dew PointF,Humidity,Sea Level PressureIn,VisibilityMPH,Wind Direction,Wind SpeedMPH,Gust SpeedMPH,PrecipitationIn,Events,Conditions,WindDirDegrees,DateUTC
12:54 AM,30.9,27.0,85,30.28,10.0,NW,5.8,-,0.00,,Overcast,320,2013-03-07 05:54:00
1:54 AM,32.0,27.0,82,30.29,10.0,NW,8.1,-,N/A,,Overcast,320,2013-03-07 06:54:00
2:54 AM,30.9,27.0,85,30.29,10.0,WNW,4.6,-,N/A,,Overcast,300,2013-03-07 07:54:00
3:54 AM,30.9,27.0,85,30.29,10.0,WNW,4.6,-,N/A,,Overcast,300,2013-03-07 08:54:00
4:54 AM,30.9,27.0,85,30.31,10.0,WNW,4.6,-,N/A,,Overcast,300,2013-03-07 09:54:00
5:54 AM,30.9,27.0,85,30.33,10.0,West,4.6,-,N/A,,Overcast,280,2013-03-07 10:54:00
6:54 AM,30.9,27.0,85,30.35,10.0,WNW,3.5,-,N/A,,Overcast,290,2013-03-07 11:54:00
7:54 AM,30.9,28.0,89,30.36,7.0,WNW,3.5,-,0.00,,Overcast,300,2013-03-07 12:54:00
8:54 AM,30.9,28.0,89,30.38,6.0,West,4.6,-,0.00,,Overcast,270,2013-03-07 13:54:00
9:20 AM,32.0,28.4,87,30.35,6.0,WNW,4.6,-,N/A,,Overcast,300,2013-03-07 14:20:00
9:54 AM,32.0,28.0,85,30.38,5.0,WNW,4.6,-,N/A,,Overcast,300,2013-03-07 14:54:00
10:21 AM,32.0,28.4,87,30.36,6.0,NW,5.8,-,N/A,,Overcast,310,2013-03-07 15:21:00
10:54 AM,33.1,28.9,85,30.39,7.0,WNW,5.8,-,N/A,,Overcast,290,2013-03-07 15:54:00
11:07 AM,33.8,28.4,81,30.36,6.0,WNW,4.6,-,N/A,,Overcast,290,2013-03-07 16:07:00
11:14 AM,33.8,28.4,81,30.36,7.0,NW,4.6,-,N/A,,Overcast,310,2013-03-07 16:14:00
11:54 AM,34.0,28.9,82,30.39,8.0,NNW,5.8,-,N/A,,Overcast,330,2013-03-07 16:54:00
12:46 PM,35.6,28.4,75,30.36,10.0,NW,5.8,-,N/A,,Overcast,320,2013-03-07 17:46:00
12:54 PM,34.0,28.0,79,30.38,10.0,Variable,3.5,-,N/A,,Overcast,0,2013-03-07 17:54:00
1:14 PM,35.6,28.4,75,30.35,10.0,NNW,4.6,-,N/A,,Overcast,340,2013-03-07 18:14:00
1:54 PM,35.1,28.0,76,30.36,10.0,NNW,4.6,-,N/A,,Overcast,340,2013-03-07 18:54:00
2:54 PM,35.1,28.0,76,30.37,10.0,North,5.8,-,N/A,,Overcast,360,2013-03-07 19:54:00
3:54 PM,35.1,27.0,72,30.36,10.0,NW,4.6,-,N/A,,Overcast,310,2013-03-07 20:54:00
4:54 PM,36.0,27.0,70,30.37,10.0,NNW,3.5,-,N/A,,Overcast,340,2013-03-07 21:54:00
5:54 PM,35.1,28.0,76,30.39,10.0,NNW,6.9,-,N/A,,Overcast,340,2013-03-07 22:54:00
6:54 PM,35.1,27.0,72,30.39,10.0,NNW,3.5,-,N/A,,Overcast,340,2013-03-07 23:54:00
7:54 PM,35.1,26.1,70,30.40,10.0,North,3.5,-,N/A,,Overcast,350,2013-03-08 00:54:00
8:54 PM,35.1,26.1,70,30.40,10.0,Calm,Calm,-,N/A,,Overcast,0,2013-03-08 01:54:00
9:54 PM,35.1,25.0,67,30.40,10.0,NNE,6.9,-,N/A,,Overcast,30,2013-03-08 02:54:00
10:54 PM,35.1,24.1,64,30.40,10.0,Calm,Calm,-,N/A,,Overcast,0,2013-03-08 03:54:00
11:01 PM,35.6,24.8,65,30.38,10.0,Calm,Calm,-,N/A,,Overcast,0,2013-03-08 04:01:00
11:54 PM,34.0,25.0,70,30.38,10.0,ENE,4.6,-,N/A,,Overcast,60,2013-03-08 04:54:00